Volver al catálogo

STARLINK-36056

ActivoComunicacionesVLEO
NORAD 67206·PAYLOAD·🇺🇸 United States

Lanzado Dec 17, 2025 desde Vandenberg Space Force Base

Loading…

Próximos Pases (próximas 24 horas)

TLE

ActualizadoSource: CelesTrak SupGP

Época: Sep 14, 2026, 23:00 UTC

1 67206C 25304Q   26257.95881944 -.00002369  00000+0 -19845-3 0  2573
2 67206  70.0011  57.3912 0003527 274.2033   8.8783 14.98343807    19

Sigue STARLINK-36056 en tiempo real con AllMySat

Download on the App Store